Time,TemperatureF,DewpointF,PressureIn,WindDirection,WindDirectionDegrees,WindSpeedMPH,WindSpeedGustMPH,Humidity,HourlyPrecipIn,Conditions,Clouds,dailyrainin,SoftwareType,DateUTC
2013-07-21 00:02:00,68.0,68.0,29.96,SSW,205,0.0,4.0,100,0.01,,,0.01,,2013-07-21 05:02:00,
2013-07-21 00:11:00,68.0,68.0,29.96,SSW,195,0.0,4.0,100,0.00,,,0.00,,2013-07-21 05:11:00,
2013-07-21 00:22:00,68.0,68.0,29.96,SW,214,2.0,7.0,100,0.00,,,0.00,,2013-07-21 05:22:00,
2013-07-21 00:32:00,68.0,68.0,29.95,SW,215,0.0,6.0,100,0.00,,,0.00,,2013-07-21 05:32:00,
2013-07-21 00:42:00,68.0,68.0,29.95,West,260,0.0,4.0,100,0.00,,,0.00,,2013-07-21 05:42:00,
2013-07-21 00:52:00,68.0,68.0,29.95,SW,220,0.0,0.0,100,0.00,,,0.00,,2013-07-21 05:52:00,
2013-07-21 01:01:00,68.0,68.0,29.94,WSW,258,0.0,0.0,100,0.00,,,0.00,,2013-07-21 06:01:00,
2013-07-21 01:11:00,68.0,68.0,29.94,West,269,0.0,1.0,100,0.00,,,0.00,,2013-07-21 06:11:00,
2013-07-21 01:22:00,68.0,68.0,29.94,West,269,0.0,5.0,100,0.00,,,0.00,,2013-07-21 06:22:00,
2013-07-21 01:32:00,68.0,68.0,29.94,WSW,249,0.0,4.0,100,0.00,,,0.00,,2013-07-21 06:32:00,
2013-07-21 01:42:00,68.0,68.0,29.94,WSW,244,0.0,5.0,100,0.00,,,0.00,,2013-07-21 06:42:00,
2013-07-21 01:52:00,69.0,69.0,29.94,WSW,237,0.0,5.0,100,0.00,,,0.00,,2013-07-21 06:52:00,
2013-07-21 02:01:00,69.0,69.0,29.95,WSW,237,0.0,2.0,100,0.00,,,0.00,,2013-07-21 07:01:00,
2013-07-21 02:11:00,69.0,69.0,29.95,WSW,237,0.0,0.0,100,0.00,,,0.00,,2013-07-21 07:11:00,
2013-07-21 02:22:00,69.0,69.0,29.95,WSW,237,0.0,0.0,100,0.00,,,0.00,,2013-07-21 07:22:00,
2013-07-21 02:32:00,68.0,68.0,29.95,SSW,203,1.0,3.0,100,0.00,,,0.00,,2013-07-21 07:32:00,
2013-07-21 02:43:00,68.0,68.0,29.96,East,84,0.0,5.0,100,0.00,,,0.00,,2013-07-21 07:43:00,
2013-07-21 02:52:00,68.0,68.0,29.95,East,84,0.0,1.0,100,0.00,,,0.00,,2013-07-21 07:52:00,
2013-07-21 03:01:00,68.0,68.0,29.95,East,82,0.0,0.0,100,0.00,,,0.00,,2013-07-21 08:01:00,
2013-07-21 03:11:00,68.0,68.0,29.95,East,82,0.0,0.0,100,0.00,,,0.00,,2013-07-21 08:11:00,
2013-07-21 03:22:00,68.0,68.0,29.95,East,82,0.0,0.0,100,0.00,,,0.00,,2013-07-21 08:22:00,
2013-07-21 03:33:00,68.0,68.0,29.94,East,82,0.0,0.0,100,0.00,,,0.00,,2013-07-21 08:33:00,
2013-07-21 03:43:00,68.0,68.0,29.95,East,82,0.0,0.0,100,0.00,,,0.00,,2013-07-21 08:43:00,
2013-07-21 03:52:00,68.0,68.0,29.94,East,82,0.0,0.0,100,0.00,,,0.00,,2013-07-21 08:52:00,
2013-07-21 04:02:00,68.0,68.0,29.94,East,82,0.0,0.0,100,0.00,,,0.00,,2013-07-21 09:02:00,
2013-07-21 04:12:00,67.0,67.0,29.94,East,82,0.0,0.0,100,0.00,,,0.00,,2013-07-21 09:12:00,
2013-07-21 04:22:00,67.0,67.0,29.95,East,82,0.0,0.0,100,0.00,,,0.00,,2013-07-21 09:22:00,
2013-07-21 04:32:00,67.0,67.0,29.94,East,82,0.0,0.0,100,0.00,,,0.00,,2013-07-21 09:32:00,
2013-07-21 04:42:00,67.0,67.0,29.95,East,82,0.0,0.0,100,0.00,,,0.00,,2013-07-21 09:42:00,
2013-07-21 04:52:00,68.0,68.0,29.95,NNE,27,0.0,0.0,100,0.00,,,0.00,,2013-07-21 09:52:00,
2013-07-21 05:02:00,68.0,68.0,29.95,NNE,27,0.0,0.0,100,0.00,,,0.00,,2013-07-21 10:02:00,
2013-07-21 05:11:00,68.0,68.0,29.95,NNE,27,0.0,0.0,100,0.00,,,0.00,,2013-07-21 10:11:00,
2013-07-21 05:22:00,68.0,68.0,29.95,North,0,0.0,4.0,100,0.00,,,0.00,,2013-07-21 10:22:00,
2013-07-21 05:32:00,68.0,68.0,29.96,North,0,0.0,0.0,100,0.00,,,0.00,,2013-07-21 10:32:00,
2013-07-21 05:43:00,68.0,68.0,29.96,SW,217,0.0,2.0,100,0.00,,,0.00,,2013-07-21 10:43:00,
2013-07-21 05:52:00,68.0,68.0,29.96,SW,217,0.0,0.0,100,0.00,,,0.00,,2013-07-21 10:52:00,
2013-07-21 06:02:00,68.0,68.0,29.96,SW,217,0.0,0.0,100,0.00,,,0.00,,2013-07-21 11:02:00,
2013-07-21 06:12:00,68.0,68.0,29.96,SW,217,0.0,0.0,100,0.00,,,0.00,,2013-07-21 11:12:00,
2013-07-21 06:22:00,68.0,68.0,29.96,SW,217,0.0,0.0,100,0.00,,,0.00,,2013-07-21 11:22:00,
2013-07-21 06:33:00,68.0,68.0,29.96,SW,217,0.0,0.0,100,0.00,,,0.00,,2013-07-21 11:33:00,
2013-07-21 06:43:00,68.0,68.0,29.96,SW,217,0.0,0.0,100,0.00,,,0.00,,2013-07-21 11:43:00,
2013-07-21 06:52:00,68.0,68.0,29.96,SW,217,0.0,0.0,100,0.00,,,0.00,,2013-07-21 11:52:00,
2013-07-21 07:01:00,68.0,68.0,29.95,SW,217,0.0,0.0,100,0.00,,,0.00,,2013-07-21 12:01:00,
2013-07-21 07:11:00,68.0,68.0,29.96,SW,217,0.0,0.0,100,0.01,,,0.01,,2013-07-21 12:11:00,
2013-07-21 07:22:00,68.0,68.0,29.96,SW,217,0.0,0.0,100,0.01,,,0.01,,2013-07-21 12:22:00,
2013-07-21 07:32:00,68.0,68.0,29.96,SW,217,0.0,0.0,100,0.01,,,0.01,,2013-07-21 12:32:00,
2013-07-21 07:43:00,69.0,69.0,29.97,SW,217,0.0,0.0,100,0.01,,,0.01,,2013-07-21 12:43:00,
2013-07-21 07:53:00,69.0,69.0,29.97,SW,217,0.0,0.0,100,0.00,,,0.01,,2013-07-21 12:53:00,
2013-07-21 08:01:00,69.0,69.0,29.97,SW,217,0.0,0.0,100,0.00,,,0.01,,2013-07-21 13:01:00,
2013-07-21 08:12:00,69.0,69.0,29.97,SW,217,0.0,0.0,100,0.00,,,0.01,,2013-07-21 13:12:00,
2013-07-21 08:22:00,70.0,70.0,29.97,SW,217,0.0,0.0,100,0.01,,,0.02,,2013-07-21 13:22:00,
2013-07-21 08:32:00,70.0,70.0,29.97,SW,217,0.0,0.0,100,0.01,,,0.02,,2013-07-21 13:32:00,
2013-07-21 08:42:00,70.0,70.0,29.97,SW,217,0.0,0.0,100,0.01,,,0.02,,2013-07-21 13:42:00,
2013-07-21 08:52:00,70.0,70.0,29.97,SW,217,0.0,0.0,100,0.01,,,0.02,,2013-07-21 13:52:00,
2013-07-21 09:01:00,70.0,70.0,29.97,SW,217,0.0,0.0,100,0.01,,,0.02,,2013-07-21 14:01:00,
2013-07-21 09:12:00,70.0,70.0,29.97,SSE,152,0.0,-999.0,100,-99.99,,,-99.99,,2013-07-21 14:12:00,
2013-07-21 09:22:00,71.0,71.0,29.98,SSE,152,0.0,-999.0,100,-99.99,,,-99.99,,2013-07-21 14:22:00,
2013-07-21 09:32:00,71.0,71.0,29.98,SSE,152,0.0,-999.0,100,-99.99,,,-99.99,,2013-07-21 14:32:00,
2013-07-21 09:43:00,71.0,71.0,29.97,SSE,152,0.0,-999.0,100,-99.99,,,-99.99,,2013-07-21 14:43:00,
2013-07-21 09:53:00,71.0,71.0,29.97,SSE,152,0.0,-999.0,100,-99.99,,,-99.99,,2013-07-21 14:53:00,
2013-07-21 10:02:00,71.0,71.0,29.98,SSE,152,0.0,-999.0,100,-99.99,,,-99.99,,2013-07-21 15:02:00,
2013-07-21 10:11:00,71.0,71.0,29.97,SSE,155,0.0,-999.0,100,-99.99,,,-99.99,,2013-07-21 15:11:00,
2013-07-21 10:22:00,72.0,72.0,29.97,SSE,162,0.0,-999.0,100,-99.99,,,-99.99,,2013-07-21 15:22:00,
2013-07-21 10:32:00,72.0,72.0,29.97,South,174,0.0,-999.0,100,-99.99,,,-99.99,,2013-07-21 15:32:00,
2013-07-21 10:43:00,72.0,72.0,29.97,SSW,213,0.0,-999.0,100,-99.99,,,-99.99,,2013-07-21 15:43:00,
2013-07-21 10:53:00,72.0,72.0,29.97,SSW,208,0.0,-999.0,100,-99.99,,,-99.99,,2013-07-21 15:53:00,
2013-07-21 11:01:00,72.0,72.0,29.98,SSW,198,0.0,-999.0,100,-99.99,,,-99.99,,2013-07-21 16:01:00,
2013-07-21 11:11:00,72.0,72.0,29.98,SSW,200,0.0,-999.0,100,-99.99,,,-99.99,,2013-07-21 16:11:00,
2013-07-21 11:22:00,72.0,72.0,29.98,SSW,205,0.0,-999.0,100,-99.99,,,-99.99,,2013-07-21 16:22:00,
2013-07-21 11:32:00,72.0,72.0,29.97,SSW,205,0.0,-999.0,100,-99.99,,,-99.99,,2013-07-21 16:32:00,
2013-07-21 11:43:00,72.0,72.0,29.98,SSW,205,0.0,-999.0,100,-99.99,,,-99.99,,2013-07-21 16:43:00,
2013-07-21 11:52:00,72.0,72.0,29.98,SSW,205,0.0,-999.0,100,-99.99,,,-99.99,,2013-07-21 16:52:00,
2013-07-21 12:02:00,72.0,72.0,29.98,SSW,205,0.0,-999.0,100,-99.99,,,-99.99,,2013-07-21 17:02:00,
2013-07-21 12:11:00,73.0,73.0,29.98,SSW,205,0.0,-999.0,100,-99.99,,,-99.99,,2013-07-21 17:11:00,
2013-07-21 12:22:00,73.0,73.0,29.98,SSW,205,0.0,-999.0,100,-99.99,,,-99.99,,2013-07-21 17:22:00,
2013-07-21 12:33:00,73.0,73.0,29.98,SSW,205,0.0,-999.0,100,-99.99,,,-99.99,,2013-07-21 17:33:00,
2013-07-21 12:43:00,73.0,73.0,29.98,SSE,159,0.0,-999.0,100,-99.99,,,-99.99,,2013-07-21 17:43:00,
2013-07-21 12:53:00,74.0,74.0,29.98,WSW,241,0.0,-999.0,100,-99.99,,,-99.99,,2013-07-21 17:53:00,
2013-07-21 13:01:00,74.0,74.0,29.97,SW,236,0.0,-999.0,100,-99.99,,,-99.99,,2013-07-21 18:01:00,
2013-07-21 13:11:00,75.0,75.0,29.97,SE,135,0.0,-999.0,100,-99.99,,,-99.99,,2013-07-21 18:11:00,
2013-07-21 13:22:00,75.0,75.0,29.96,SSW,213,0.0,-999.0,100,-99.99,,,-99.99,,2013-07-21 18:22:00,
2013-07-21 13:32:00,76.0,76.0,29.96,SW,228,0.0,-999.0,100,-99.99,,,-99.99,,2013-07-21 18:32:00,
2013-07-21 13:43:00,76.0,76.0,29.95,WSW,239,0.0,-999.0,100,-99.99,,,-99.99,,2013-07-21 18:43:00,
2013-07-21 13:52:00,76.0,76.0,29.95,SW,214,0.0,-999.0,100,-99.99,,,-99.99,,2013-07-21 18:52:00,
2013-07-21 14:01:00,76.0,76.0,29.94,SW,215,2.0,-999.0,100,-99.99,,,-99.99,,2013-07-21 19:01:00,
2013-07-21 14:22:00,77.0,77.0,29.93,WSW,256,0.0,-999.0,100,-99.99,,,-99.99,,2013-07-21 19:22:00,
2013-07-21 14:32:00,77.0,77.0,29.93,WSW,251,0.0,-999.0,100,-99.99,,,-99.99,,2013-07-21 19:32:00,
2013-07-21 14:42:00,77.0,76.0,29.92,WSW,243,0.0,-999.0,98,-99.99,,,-99.99,,2013-07-21 19:42:00,
2013-07-21 14:52:00,77.0,76.0,29.92,SW,235,0.0,-999.0,98,-99.99,,,-99.99,,2013-07-21 19:52:00,
2013-07-21 15:01:00,77.0,76.0,29.91,SSW,200,0.0,-999.0,98,-99.99,,,-99.99,,2013-07-21 20:01:00,
2013-07-21 15:11:00,76.0,76.0,29.91,SSW,207,0.0,-999.0,100,-99.99,,,-99.99,,2013-07-21 20:11:00,
2013-07-21 15:22:00,77.0,77.0,29.91,NW,307,0.0,-999.0,100,-99.99,,,-99.99,,2013-07-21 20:22:00,
2013-07-21 15:32:00,76.0,76.0,29.91,WSW,257,4.0,-999.0,100,-99.99,,,-99.99,,2013-07-21 20:32:00,
2013-07-21 15:42:00,76.0,76.0,29.90,West,273,0.0,-999.0,100,-99.99,,,-99.99,,2013-07-21 20:42:00,
2013-07-21 15:52:00,76.0,76.0,29.91,SW,224,0.0,-999.0,100,-99.99,,,-99.99,,2013-07-21 20:52:00,
2013-07-21 16:01:00,75.0,75.0,29.90,West,265,0.0,-999.0,100,-99.99,,,-99.99,,2013-07-21 21:01:00,
2013-07-21 16:11:00,77.0,77.0,29.90,SW,231,2.0,-999.0,100,-99.99,,,-99.99,,2013-07-21 21:11:00,
2013-07-21 16:22:00,78.0,78.0,29.89,SSW,195,0.0,-999.0,99,-99.99,,,-99.99,,2013-07-21 21:22:00,
2013-07-21 16:32:00,78.0,77.0,29.89,SSW,193,0.0,-999.0,97,-99.99,,,-99.99,,2013-07-21 21:32:00,
2013-07-21 16:43:00,78.0,76.0,29.90,SW,221,0.0,-999.0,94,-99.99,,,-99.99,,2013-07-21 21:43:00,
2013-07-21 16:52:00,79.0,77.0,29.88,South,177,0.0,-999.0,94,-99.99,,,-99.99,,2013-07-21 21:52:00,
2013-07-21 17:01:00,79.0,76.0,29.89,SW,214,7.0,-999.0,90,-99.99,,,-99.99,,2013-07-21 22:01:00,
2013-07-21 17:11:00,79.0,75.0,29.88,WSW,256,2.0,-999.0,89,-99.99,,,-99.99,,2013-07-21 22:11:00,
2013-07-21 17:22:00,78.0,75.0,29.89,SW,235,0.0,-999.0,91,-99.99,,,-99.99,,2013-07-21 22:22:00,
2013-07-21 17:32:00,78.0,75.0,29.89,South,190,0.0,-999.0,92,-99.99,,,-99.99,,2013-07-21 22:32:00,
2013-07-21 17:43:00,79.0,76.0,29.89,SW,233,0.0,-999.0,92,-99.99,,,-99.99,,2013-07-21 22:43:00,
2013-07-21 17:52:00,79.0,76.0,29.89,WSW,249,4.0,-999.0,91,-99.99,,,-99.99,,2013-07-21 22:52:00,
2013-07-21 18:01:00,79.0,76.0,29.89,SW,225,5.0,-999.0,90,-99.99,,,-99.99,,2013-07-21 23:01:00,
2013-07-21 18:11:00,79.0,76.0,29.88,WSW,247,0.0,-999.0,92,-99.99,,,-99.99,,2013-07-21 23:11:00,
2013-07-21 18:22:00,78.0,76.0,29.89,SSW,202,0.0,-999.0,94,-99.99,,,-99.99,,2013-07-21 23:22:00,
2013-07-21 18:32:00,78.0,76.0,29.89,SW,222,0.0,-999.0,94,-99.99,,,-99.99,,2013-07-21 23:32:00,
2013-07-21 18:42:00,78.0,77.0,29.88,WSW,246,0.0,-999.0,96,-99.99,,,-99.99,,2013-07-21 23:42:00,
2013-07-21 18:52:00,78.0,77.0,29.90,WSW,237,0.0,-999.0,96,-99.99,,,-99.99,,2013-07-21 23:52:00,
2013-07-21 19:01:00,78.0,77.0,29.89,WNW,292,0.0,-999.0,96,-99.99,,,-99.99,,2013-07-22 00:01:00,
2013-07-21 19:11:00,78.0,77.0,29.89,WNW,292,0.0,-999.0,97,-99.99,,,-99.99,,2013-07-22 00:11:00,
2013-07-21 19:22:00,79.0,78.0,29.90,West,264,0.0,-999.0,97,-99.99,,,-99.99,,2013-07-22 00:22:00,
2013-07-21 19:32:00,79.0,78.0,29.89,West,262,0.0,1.0,96,-99.99,,,-99.99,,2013-07-22 00:32:00,
2013-07-21 19:52:00,78.0,77.0,29.89,West,263,0.0,3.0,97,-99.99,,,-99.99,,2013-07-22 00:52:00,
2013-07-21 20:02:00,78.0,77.0,29.89,West,264,0.0,1.0,97,-99.99,,,-99.99,,2013-07-22 01:02:00,
2013-07-21 20:11:00,78.0,77.0,29.89,West,264,0.0,0.0,98,-99.99,,,-99.99,,2013-07-22 01:11:00,
2013-07-21 20:22:00,78.0,77.0,29.89,West,264,0.0,0.0,98,-99.99,,,-99.99,,2013-07-22 01:22:00,
2013-07-21 20:32:00,77.0,77.0,29.90,West,264,0.0,0.0,100,0.00,,,-99.99,,2013-07-22 01:32:00,
2013-07-21 20:42:00,77.0,77.0,29.89,West,264,0.0,0.0,100,0.00,,,-99.99,,2013-07-22 01:42:00,
2013-07-21 20:52:00,76.0,76.0,29.89,West,264,0.0,0.0,100,0.00,,,-99.99,,2013-07-22 01:52:00,
2013-07-21 21:02:00,76.0,76.0,29.90,West,264,0.0,0.0,100,0.00,,,-99.99,,2013-07-22 02:02:00,
2013-07-21 21:11:00,76.0,76.0,29.90,West,264,0.0,0.0,100,0.00,,,0.00,,2013-07-22 02:11:00,
2013-07-21 21:22:00,75.0,75.0,29.90,West,264,0.0,0.0,100,0.00,,,0.00,,2013-07-22 02:22:00,
2013-07-21 21:32:00,75.0,75.0,29.91,West,264,0.0,0.0,100,0.00,,,0.00,,2013-07-22 02:32:00,
2013-07-21 21:43:00,75.0,75.0,29.90,West,263,0.0,0.0,100,0.00,,,0.00,,2013-07-22 02:43:00,
2013-07-21 21:52:00,75.0,75.0,29.91,West,264,0.0,0.0,100,0.00,,,0.00,,2013-07-22 02:52:00,
2013-07-21 22:01:00,74.0,74.0,29.90,West,264,0.0,0.0,100,0.00,,,0.00,,2013-07-22 03:01:00,
2013-07-21 22:12:00,74.0,74.0,29.91,West,264,0.0,0.0,100,0.00,,,0.00,,2013-07-22 03:12:00,
2013-07-21 22:22:00,74.0,74.0,29.91,West,264,0.0,0.0,100,0.00,,,0.00,,2013-07-22 03:22:00,
2013-07-21 22:33:00,74.0,74.0,29.91,West,264,0.0,0.0,100,0.00,,,0.00,,2013-07-22 03:33:00,
2013-07-21 22:43:00,74.0,74.0,29.91,West,264,0.0,0.0,100,0.00,,,0.00,,2013-07-22 03:43:00,
2013-07-21 22:53:00,74.0,74.0,29.91,West,264,0.0,0.0,100,0.00,,,0.00,,2013-07-22 03:53:00,
2013-07-21 23:01:00,73.0,73.0,29.90,West,264,0.0,0.0,100,0.00,,,0.00,,2013-07-22 04:01:00,
2013-07-21 23:12:00,73.0,73.0,29.91,West,264,0.0,0.0,100,0.00,,,0.00,,2013-07-22 04:12:00,
2013-07-21 23:22:00,73.0,73.0,29.90,West,264,0.0,0.0,100,0.00,,,0.00,,2013-07-22 04:22:00,
2013-07-21 23:33:00,73.0,73.0,29.90,West,264,0.0,0.0,100,0.00,,,0.00,,2013-07-22 04:33:00,
2013-07-21 23:43:00,73.0,73.0,29.91,West,264,0.0,0.0,100,0.00,,,0.00,,2013-07-22 04:43:00,